[[{"header":{"parameterUnit":"m.s-1","parameterCategory":2,"la1":30.2991,"la2":30.254,"lo1":-89.0895,"lo2":-89.0444,"dy":0.0017,"dx":0.0017,"nx":28,"ny":28,"refTime":"2024-12-17T03:00:00:Z","depth":"0","parameterNumber":2,"parameterNumberName":"U-component_of_CURRENTS"},"data":[0,0,0,0,0,0,0,0,0,0,0,0,0,0,0,0,0,0,0,0,0,0,0,0,0,0,0,0,0,0,0,0,0,0,0,0,0,0,0,0,0,0,0,0,0,0,0,0,0,0,0,0,0,0,0,0,0,0,0.2949,0.2951,0,0.305,0.3051,0.3051,0.3065,0.3065,0.3065,0.3065,0.293,0.2927,0.2923,0,0,0,0,0,0,0,0,0,0,0,0,0,0.2673,0.2678,0.2949,0.2951,0.2953,0.305,0.3051,0.3051,0.3065,0.3065,0.3065,0.3065,0.2931,0.2927,0.2923,0,0,0,0,0,0,0,0,0,0,0,0,0,0.2777,0.268,0.2949,0.2979,0.2983,0.305,0.3051,0.3052,0.3065,0.3065,0.3065,0.3065,0.2933,0.2928,0.2922,0.2893,0,0,0.2906,0.2904,0,0,0,0,0,0,0,0,0.2771,0.2786,0.2972,0.2977,0.2982,0.3053,0.2905,0.299,0.3065,0.3025,0.3065,0.3065,0.2955,0.2948,0.2958,0.2887,0.2881,0.2906,0.2903,0.29,0.2899,0,0,0,0,0,0,0,0.2764,0.2781,0.298,0.2975,0.2981,0.2955,0.297,0.2921,0.2978,0.3028,0.3032,0.3057,0.2955,0.2963,0.2954,0.2879,0.2906,0.2901,0.2898,0.2896,0.2835,0.2836,0,0,0,0,0,0,0.2776,0.2776,0.2977,0.2984,0.2884,0.2961,0.2977,0.3023,0.2984,0.2983,0.3058,0.3058,0.2972,0.2961,0.2949,0.2943,0.2901,0.2896,0.2893,0.2833,0.2835,0.2837,0,0,0,0,0,0,0.277,0.2794,0.2973,0.2887,0.291,0.2968,0.3018,0.3025,0.3039,0.3011,0.3003,0.3066,0.2972,0.2957,0.2941,0.2936,0.2893,0.2889,0.2832,0.2834,0.2836,0.2909,0,0,0,0,0,0,0.2762,0.2792,0.2803,0.2889,0.2915,0.3014,0.302,0.3028,0.3059,0.306,0.3014,0.3002,0.2971,0.2949,0.2936,0.2928,0.2884,0.283,0.2833,0.2835,0.2905,0.2914,0.2921,0,0,0,0,0,0.2752,0.2768,0.2804,0.2827,0.2939,0.3016,0.3025,0.3058,0.306,0.3067,0.306,0.3004,0.2957,0.2947,0.293,0.2921,0.2828,0.2832,0.2835,0.2901,0.2912,0.2921,0,0,0,0,0,0,0.2625,0.2775,0.2815,0.2868,0.2943,0.3022,0.3026,0.3061,0.3064,0.3055,0.3022,0.301,0.2993,0.2956,0.2946,0.2917,0.2882,0.2883,0.2938,0.2947,0.2956,0.2949,0.288,0,0,0,0,0,0.2616,0.2685,0.2805,0.2844,0.2883,0.2956,0.2983,0.3022,0.3053,0.3056,0.3037,0.3012,0.2994,0.2972,0.2946,0.2923,0.2886,0.2909,0.2917,0.2924,0.2911,0.2881,0.2884,0.2848,0.2848,0.2848,0,0,0.2574,0.2668,0.2701,0.2825,0.2878,0.2927,0.2969,0.3023,0.3055,0.3033,0.3039,0.3032,0.2998,0.299,0.2976,0.2955,0.2921,0.2929,0.2935,0.2917,0.2885,0.2888,0.2891,0.285,0.285,0.285,0,0,0.2527,0.2616,0.2654,0.2727,0.2835,0.2894,0.2915,0.3006,0.3034,0.3064,0.306,0.3068,0.3028,0.3023,0.3009,0.3042,0.2969,0.3026,0.305,0.3022,0.3024,0.3025,0.3001,0.3,0.3026,0.3026,0.3026,0,0.2453,0.2547,0.2664,0.2718,0.277,0.2881,0.2913,0.2966,0.3038,0.305,0.3067,0.3064,0.3045,0.3038,0.3071,0.3055,0.3028,0.3014,0.303,0.3031,0.303,0.3006,0.3003,0.303,0.303,0.3029,0.3029,0,0.2452,0.2515,0.254,0.2663,0.2726,0.2779,0.2893,0.2938,0.2992,0.3038,0.3064,0.3084,0.307,0.3087,0.309,0.3086,0.3065,0.3047,0.3001,0.3038,0.3011,0.3006,0.3036,0.3034,0.3033,0.3032,0,0,0.2318,0.2498,0.2505,0.256,0.271,0.2766,0.2828,0.2913,0.2942,0.3013,0.3025,0.307,0.3087,0.3076,0.3091,0.31,0.3105,0.3082,0.3078,0.3051,0.3041,0.29,0.2881,0.3085,0.3085,0.3084,0.3028,0,0.2272,0.2351,0.2461,0.2528,0.2585,0.2712,0.2766,0.2855,0.2926,0.2961,0.3013,0.3029,0.3079,0.3084,0.3101,0.3094,0.3094,0.3121,0.3015,0.3011,0.2874,0.2871,0.2711,0.2635,0.3024,0.3023,0.3022,0,0.2247,0.2311,0.236,0.2502,0.2534,0.2576,0.2691,0.2754,0.2839,0.2887,0.2926,0.2967,0.2999,0.3035,0.3043,0.3054,0.3048,0.306,0.3056,0.2886,0.286,0.2657,0.2612,0.2534,0.3015,0.3016,0.3016,0,0.2143,0.2253,0.229,0.2339,0.2493,0.2519,0.259,0.2703,0.2752,0.2821,0.2841,0.2896,0.2902,0.2924,0.2965,0.2993,0.2956,0.298,0.2852,0.2843,0.2662,0.2636,0.2512,0.2965,0.2965,0.2965,0.2965,0,0.2097,0.2132,0.2235,0.2264,0.2301,0.2431,0.2472,0.256,0.2638,0.2671,0.2772,0.2798,0.2875,0.2881,0.292,0.2852,0.2903,0.2837,0.2806,0.2685,0.2663,0.255,0.2557,0.2963,0.2964,0.2964,0.2964,0,0.2026,0.2087,0.214,0.2242,0.2265,0.2292,0.2399,0.2435,0.252,0.2554,0.257,0.2686,0.2699,0.2758,0.278,0.2756,0.2634,0.2701,0.2556,0.2507,0.229,0.2308,0.2069,0.2033,0.2534,0.253,0.2527,0,0.2017,0.2031,0.2099,0.2115,0.2158,0.2204,0.2245,0.2353,0.239,0.2493,0.2491,0.2531,0.2549,0.2514,0.2486,0.2459,0.2468,0.2285,0.2303,0.2224,0.2225,0.219,0.218,0.2118,0.2111,0.2106,0.2102,0,0.1996,0.2003,0.2038,0.2053,0.2075,0.2119,0.2168,0.2175,0.2293,0.2315,0.2354,0.2371,0.2329,0.2219,0.2157,0.2145,0.2132,0.217,0.2122,0.1896,0.1815,0.1783,0.2233,0.2054,0.2059,0.2062,0.2065,0.2067,0.1972,0.1973,0.1992,0.2005,0.2023,0.2035,0.2035,0.2074,0.2094,0.2101,0.2183,0.2121,0.2003,0.189,0.1861,0.1657,0.1784,0.1601,0.1637,0.1615,0.1534,0.1868,0.1629,0.1632,0.1634,0.1635,0.1637,0,0.1941,0.1937,0.1954,0.1949,0.1933,0.1967,0.199,0.1959,0.1923,0.1914,0.1904,0.1711,0.1547,0.1455,0.1235,0.1143,0.1154,0.1118,0.1065,0.1097,0.1399,0.1334,0.0977,0.0977,0.0977,0.0977,0.0977,0.0978,0.1921,0.1907,0.1905,0.1855,0.1844,0.18,0.1792,0.1739,0.1706,0.1551,0.1404,0.1347,0.1192,0.0953,0.077,0.0768,0.077,0.066,0.0776,0.1019,0.1069,0.1117,0.1055,0.0645,0.0645,0.0395,0.0393,0.0391]},{"header":{"parameterUnit":"m.s-1","parameterCategory":2,"la1":30.2991,"la2":30.254,"lo1":-89.0895,"lo2":-89.0444,"dy":0.0017,"dx":0.0017,"nx":28,"ny":28,"refTime":"2024-12-17T03:00:00:Z","depth":"0","parameterNumber":3,"parameterNumberName":"V-component_of_CURRENTS"},"data":[0,0,0,0,0,0,0,0,0,0,0,0,0,0,0,0,0,0,0,0,0,0,0,0,0,0,0,0,0,0,0,0,0,0,0,0,0,0,0,0,0,0,0,0,0,0,0,0,0,0,0,0,0,0,0,0,0,0,-0.0703,-0.0705,0,-0.0804,-0.0805,-0.0805,-0.0824,-0.0824,-0.0823,-0.0823,-0.0779,-0.0779,-0.0778,0,0,0,0,0,0,0,0,0,0,0,0,0,-0.0497,-0.0501,-0.0703,-0.0705,-0.0707,-0.0804,-0.0805,-0.0806,-0.0824,-0.0824,-0.0823,-0.0822,-0.0779,-0.0779,-0.0778,0,0,0,0,0,0,0,0,0,0,0,0,0,-0.0587,-0.0502,-0.0703,-0.0731,-0.0734,-0.0803,-0.0805,-0.0806,-0.0824,-0.0823,-0.0823,-0.0822,-0.078,-0.0779,-0.0778,-0.0784,0,0,-0.0774,-0.0774,0,0,0,0,0,0,0,0,-0.0582,-0.0594,-0.0725,-0.0729,-0.0733,-0.0804,-0.0716,-0.0793,-0.0824,-0.0786,-0.0823,-0.0822,-0.0777,-0.0777,-0.0793,-0.0782,-0.078,-0.0774,-0.0773,-0.0773,-0.0773,0,0,0,0,0,0,0,-0.0576,-0.059,-0.0739,-0.0727,-0.0732,-0.0728,-0.074,-0.0731,-0.0778,-0.0789,-0.0792,-0.081,-0.0778,-0.0794,-0.0792,-0.0779,-0.0774,-0.0773,-0.0772,-0.0772,-0.0777,-0.0778,0,0,0,0,0,0,-0.0575,-0.0585,-0.0736,-0.0742,-0.0659,-0.0732,-0.0745,-0.0779,-0.0781,-0.0784,-0.081,-0.081,-0.0796,-0.0793,-0.079,-0.0805,-0.0773,-0.0772,-0.0771,-0.0777,-0.0778,-0.0779,0,0,0,0,0,0,-0.057,-0.0588,-0.0732,-0.0667,-0.0686,-0.0737,-0.0774,-0.0781,-0.0798,-0.08,-0.0798,-0.082,-0.0796,-0.0792,-0.081,-0.0802,-0.0771,-0.077,-0.0776,-0.0777,-0.0778,-0.0828,0,0,0,0,0,0,-0.0564,-0.0586,-0.0604,-0.0668,-0.069,-0.077,-0.0775,-0.0784,-0.0812,-0.0813,-0.0808,-0.0804,-0.0795,-0.0813,-0.0809,-0.08,-0.0769,-0.0775,-0.0776,-0.0778,-0.0825,-0.0831,-0.0836,0,0,0,0,0,-0.0557,-0.0584,-0.0605,-0.0623,-0.0716,-0.0771,-0.0781,-0.0811,-0.0813,-0.0823,-0.084,-0.0804,-0.0818,-0.0814,-0.0809,-0.0799,-0.0774,-0.0776,-0.0778,-0.0823,-0.083,-0.0835,0,0,0,0,0,0,-0.0501,-0.0592,-0.0615,-0.0668,-0.0716,-0.0776,-0.0787,-0.0813,-0.0837,-0.0831,-0.0829,-0.0828,-0.0834,-0.0818,-0.0813,-0.0806,-0.0783,-0.0784,-0.0819,-0.0825,-0.083,-0.0797,-0.0769,0,0,0,0,0,-0.0501,-0.0543,-0.0622,-0.0659,-0.0682,-0.0734,-0.0759,-0.0785,-0.0819,-0.0829,-0.0832,-0.0832,-0.084,-0.0836,-0.0833,-0.0838,-0.0782,-0.0824,-0.0829,-0.0834,-0.0805,-0.0749,-0.0746,-0.0785,-0.0785,-0.0785,0,0,-0.049,-0.0543,-0.0567,-0.0649,-0.0682,-0.0711,-0.0745,-0.0783,-0.0801,-0.0817,-0.083,-0.0849,-0.0847,-0.0859,-0.0857,-0.0843,-0.0795,-0.0836,-0.084,-0.0808,-0.075,-0.0746,-0.0742,-0.0786,-0.0786,-0.0785,0,0,-0.0466,-0.0533,-0.0548,-0.059,-0.0651,-0.0692,-0.0704,-0.0767,-0.0786,-0.0821,-0.0837,-0.0863,-0.0863,-0.0875,-0.0877,-0.0906,-0.0826,-0.0896,-0.089,-0.0838,-0.0833,-0.0829,-0.0753,-0.0742,-0.0895,-0.0896,-0.0896,0,-0.0437,-0.0482,-0.0557,-0.0575,-0.0603,-0.068,-0.069,-0.0732,-0.0792,-0.0798,-0.0819,-0.0848,-0.0865,-0.0876,-0.0904,-0.0913,-0.0857,-0.0871,-0.0842,-0.0836,-0.083,-0.0754,-0.074,-0.0898,-0.0898,-0.0898,-0.0897,0,-0.0424,-0.0456,-0.0466,-0.052,-0.056,-0.0586,-0.0659,-0.0688,-0.0726,-0.0762,-0.0786,-0.0839,-0.0838,-0.0872,-0.0904,-0.0882,-0.0848,-0.0858,-0.0822,-0.0829,-0.0749,-0.0734,-0.0902,-0.0901,-0.09,-0.09,0,0,-0.0364,-0.0437,-0.0438,-0.0448,-0.0534,-0.0562,-0.0597,-0.0644,-0.0644,-0.0713,-0.0695,-0.0783,-0.0802,-0.0808,-0.0852,-0.0847,-0.0797,-0.0841,-0.0837,-0.0756,-0.0648,-0.0603,-0.0582,-0.0796,-0.0794,-0.0792,-0.0608,0,-0.0319,-0.0329,-0.0388,-0.0398,-0.0413,-0.0491,-0.0513,-0.0566,-0.0612,-0.0615,-0.068,-0.0686,-0.0778,-0.0781,-0.0792,-0.0789,-0.0757,-0.0843,-0.0659,-0.0653,-0.0605,-0.0563,-0.0535,-0.0366,-0.0592,-0.059,-0.0588,0,-0.0289,-0.0299,-0.0293,-0.0335,-0.0345,-0.036,-0.04,-0.043,-0.0471,-0.0495,-0.0523,-0.0562,-0.0582,-0.065,-0.0619,-0.0663,-0.0645,-0.0653,-0.0645,-0.0566,-0.0579,-0.0396,-0.0329,-0.0353,-0.0563,-0.0565,-0.0567,0,-0.0216,-0.024,-0.0226,-0.0244,-0.03,-0.0296,-0.0322,-0.0378,-0.0382,-0.0399,-0.0382,-0.0421,-0.0399,-0.0412,-0.0453,-0.0512,-0.0384,-0.0455,-0.039,-0.0385,-0.0302,-0.0294,-0.0223,-0.0388,-0.0389,-0.0389,-0.039,0,-0.0169,-0.0159,-0.0181,-0.0178,-0.0152,-0.0216,-0.0192,-0.023,-0.0239,-0.0213,-0.0296,-0.0261,-0.0336,-0.03,-0.0356,-0.03,-0.0286,-0.035,-0.0326,-0.0321,-0.0317,-0.0288,-0.0314,-0.0382,-0.0384,-0.0385,-0.0387,0,-0.0113,-0.0127,-0.0111,-0.0125,-0.0121,-0.0103,-0.0106,-0.0093,-0.0111,-0.0065,-0.0055,-0.0081,-0.0038,-0.0098,-0.008,-0.0135,-0.0101,-0.0101,-0.0083,-0.0061,-0.0063,-0.0093,0.0082,0.0089,0.0006,0.0009,0.0011,0,-0.0091,-0.0073,-0.0058,-0.0037,-0.0038,-0.0013,0.0001,-0.0022,-0.0001,0.0042,0.0085,0.014,0.018,0.0231,0.0151,0.0137,0.0057,0.0145,0.0012,-0.0018,-0.0034,-0.0056,-0.0068,0.0107,0.011,0.0112,0.0114,0,-0.0045,-0.0033,-0.0018,0.0032,0.0062,0.0091,0.0121,0.0164,0.0159,0.0215,0.0308,0.0358,0.0401,0.0407,0.0376,0.0323,0.0152,0.0188,0.0158,0.007,0.0057,0.0059,-0.0052,0.0133,0.0131,0.0129,0.0128,0.0128,-0.0006,0.0019,0.0049,0.0092,0.0134,0.0188,0.0227,0.0279,0.0355,0.0452,0.049,0.0596,0.0581,0.0538,0.0479,0.0369,0.0329,0.0294,0.0272,0.0261,0.0232,0.0175,0.037,0.0369,0.0369,0.0369,0.0368,0,0.0037,0.0062,0.0104,0.0159,0.0214,0.022,0.0296,0.0347,0.0464,0.0588,0.069,0.0763,0.075,0.0656,0.0523,0.0452,0.0381,0.0398,0.035,0.0338,0.0302,0.0264,0.0445,0.0445,0.0445,0.0445,0.0445,0.0445,0.0064,0.0108,0.0123,0.0217,0.0259,0.0333,0.038,0.0476,0.0575,0.0746,0.0839,0.0898,0.0838,0.0656,0.0524,0.0477,0.0412,0.043,0.0391,0.0314,0.03,0.0287,0.0243,0.0417,0.0417,0.0427,0.0427,0.0427]}],[{"header":{"parameterUnit":"m.s-1","parameterCategory":2,"la1":30.2991,"la2":30.254,"lo1":-89.0895,"lo2":-89.0444,"dy":0.0017,"dx":0.0017,"nx":28,"ny":28,"refTime":"2024-12-17T03:00:00:Z","depth":"2","parameterNumber":2,"parameterNumberName":"U-component_of_CURRENTS"},"data":[0,0,0,0,0,0,0,0,0,0,0,0,0,0,0,0,0,0,0,0,0,0,0,0,0,0,0,0,0,0,0,0,0,0,0,0,0,0,0,0,0,0,0,0,0,0,0,0,0,0,0,0,0,0,0,0,0,0,0.1093,0.1093,0,0.11,0.11,0.11,0.1086,0.1086,0.1085,0.1085,0.1239,0.1243,0.1248,0,0,0,0,0,0,0,0,0,0,0,0,0,0.1204,0.1201,0.1093,0.1093,0.1094,0.11,0.11,0.11,0.1086,0.1086,0.1085,0.1085,0.1237,0.1243,0.1248,0,0,0,0,0,0,0,0,0,0,0,0,0,0.1176,0.12,0.1093,0.1089,0.1088,0.11,0.11,0.11,0.1086,0.1086,0.1085,0.1085,0.1236,0.1242,0.1249,0.1299,0,0,0.1269,0.1272,0,0,0,0,0,0,0,0,0.1178,0.1172,0.1089,0.1089,0.1089,0.1093,0.1196,0.1174,0.1086,0.1085,0.1085,0.1085,0.1205,0.1214,0.1212,0.1306,0.1313,0.1269,0.1273,0.1276,0.1278,0,0,0,0,0,0,0,0.1179,0.1172,0.1094,0.1089,0.1089,0.1133,0.1127,0.1191,0.1149,0.1085,0.1085,0.1088,0.1206,0.1206,0.1216,0.1315,0.1269,0.1275,0.1279,0.1282,0.1401,0.14,0,0,0,0,0,0,0.1174,0.1173,0.1094,0.1095,0.1135,0.1131,0.1124,0.1091,0.1145,0.1153,0.1089,0.1088,0.1195,0.1209,0.1222,0.1315,0.1276,0.1282,0.1286,0.1402,0.1401,0.14,0,0,0,0,0,0,0.1176,0.1166,0.1094,0.1138,0.1132,0.1129,0.1092,0.1091,0.1099,0.1147,0.1156,0.1098,0.1195,0.1213,0.1255,0.132,0.1285,0.1291,0.1403,0.1402,0.14,0.1483,0,0,0,0,0,0,0.1178,0.1165,0.116,0.1136,0.1129,0.1093,0.1093,0.1092,0.1102,0.1101,0.1158,0.1171,0.1196,0.1245,0.1261,0.1328,0.1296,0.1404,0.1402,0.1401,0.1481,0.1484,0.1487,0,0,0,0,0,0.1182,0.1158,0.1158,0.115,0.1113,0.1093,0.1093,0.1091,0.1103,0.1098,0.1125,0.1169,0.1247,0.1249,0.127,0.134,0.1404,0.1403,0.1401,0.1479,0.1484,0.1487,0,0,0,0,0,0,0.1198,0.1154,0.1153,0.1116,0.1108,0.1091,0.1098,0.1101,0.1117,0.1135,0.1169,0.1183,0.1239,0.1258,0.1259,0.1356,0.1331,0.1333,0.1384,0.1389,0.1392,0.1344,0.1302,0,0,0,0,0,0.1201,0.1168,0.1146,0.1118,0.1119,0.1117,0.1119,0.112,0.1126,0.1133,0.1172,0.121,0.1247,0.129,0.1314,0.139,0.1384,0.1436,0.1439,0.1443,0.1409,0.1464,0.1471,0.1394,0.1394,0.1394,0,0,0.1208,0.1173,0.1162,0.1122,0.1121,0.1132,0.1115,0.1121,0.1137,0.1155,0.1201,0.1227,0.1257,0.1318,0.1349,0.1353,0.1458,0.144,0.1444,0.1407,0.1463,0.1471,0.1478,0.1393,0.1393,0.1394,0,0,0.1204,0.1169,0.1158,0.115,0.1149,0.115,0.1155,0.1158,0.1165,0.121,0.1217,0.1253,0.1337,0.1353,0.1378,0.1411,0.1458,0.1445,0.1462,0.1519,0.1527,0.1533,0.1535,0.1541,0.1469,0.1469,0.1469,0,0.1225,0.1181,0.1157,0.1153,0.1156,0.1162,0.1175,0.1186,0.1205,0.1216,0.1233,0.1305,0.1345,0.1397,0.1401,0.1427,0.1447,0.1465,0.1529,0.1535,0.1541,0.1541,0.1547,0.1473,0.1472,0.1472,0.1472,0,0.1219,0.1198,0.1189,0.1183,0.1194,0.1191,0.1212,0.1233,0.1265,0.1279,0.1326,0.1357,0.1406,0.1432,0.1439,0.15,0.1495,0.1521,0.1533,0.1555,0.1551,0.1556,0.1478,0.1477,0.1476,0.1475,0,0,0.1217,0.119,0.1191,0.1188,0.1203,0.1204,0.1247,0.1266,0.1287,0.1335,0.137,0.1419,0.1445,0.1463,0.1492,0.1524,0.1592,0.1549,0.155,0.1571,0.1694,0.1578,0.1572,0.1664,0.1665,0.1666,0.1677,0,0.1218,0.1206,0.1202,0.1215,0.1214,0.1234,0.1264,0.1297,0.133,0.1371,0.1409,0.1451,0.1462,0.1503,0.1549,0.1571,0.1608,0.1583,0.1646,0.1645,0.1562,0.1575,0.1434,0.1422,0.1682,0.1682,0.1683,0,0.121,0.1198,0.121,0.1205,0.1211,0.1233,0.1271,0.13,0.1357,0.1394,0.1455,0.1485,0.1537,0.1552,0.1618,0.1617,0.1655,0.166,0.1663,0.1519,0.1538,0.1439,0.1421,0.1691,0.169,0.1689,0.1689,0,0.1201,0.1193,0.1196,0.1197,0.1219,0.1232,0.1253,0.1304,0.1335,0.1407,0.1443,0.1518,0.157,0.1624,0.1654,0.1665,0.1704,0.1739,0.1653,0.1645,0.1506,0.1482,0.1783,0.1783,0.1783,0.1782,0.1782,0,0.1176,0.1177,0.1185,0.1186,0.1201,0.1224,0.126,0.1289,0.1355,0.1395,0.1457,0.1496,0.1597,0.1638,0.1667,0.1657,0.1741,0.1624,0.1641,0.1525,0.1504,0.1718,0.171,0.1783,0.1783,0.1783,0.1783,0,0.1165,0.1169,0.1169,0.1186,0.1194,0.1212,0.1264,0.1279,0.1338,0.1399,0.1427,0.1512,0.1538,0.1582,0.1656,0.1656,0.1659,0.1642,0.146,0.1453,0.1555,0.1551,0.1541,0.1537,0.1533,0.1531,0.1528,0,0.115,0.1146,0.1173,0.118,0.1184,0.1215,0.1229,0.1284,0.1302,0.139,0.1403,0.1453,0.1465,0.1485,0.1479,0.147,0.1567,0.1347,0.1322,0.1512,0.1531,0.1532,0.1533,0.1179,0.1174,0.117,0.1167,0,0.1123,0.1142,0.1152,0.1165,0.1172,0.1191,0.1204,0.1224,0.1288,0.1307,0.1325,0.1333,0.1334,0.1255,0.1241,0.1229,0.1329,0.1258,0.1545,0.1246,0.1169,0.1188,0.1201,0.113,0.1134,0.1137,0.1139,0.114,0.111,0.1108,0.1124,0.1134,0.1146,0.1143,0.1129,0.1137,0.1148,0.1147,0.1203,0.1147,0.1157,0.1027,0.0987,0.0958,0.1066,0.1038,0.1053,0.1072,0.1012,0.0931,0.0834,0.0836,0.0838,0.0839,0.0841,0,0.1066,0.1079,0.1083,0.1087,0.1069,0.1101,0.109,0.1051,0.101,0.1013,0.0989,0.0857,0.0772,0.0785,0.0673,0.0657,0.0682,0.0634,0.0672,0.0707,0.0738,0.0664,0.0394,0.0392,0.0391,0.039,0,0,0.1052,0.1036,0.1033,0.1002,0.1007,0.0954,0.0931,0.0877,0.0847,0.0768,0.0715,0.0732,0.0749,0.057,0.053,0.0449,0.0582,0.0417,0.0772,0.0852,0.0882,0.0958,0.088,0,0,0,0,0]},{"header":{"parameterUnit":"m.s-1","parameterCategory":2,"la1":30.2991,"la2":30.254,"lo1":-89.0895,"lo2":-89.0444,"dy":0.0017,"dx":0.0017,"nx":28,"ny":28,"refTime":"2024-12-17T03:00:00:Z","depth":"2","parameterNumber":3,"parameterNumberName":"V-component_of_CURRENTS"},"data":[0,0,0,0,0,0,0,0,0,0,0,0,0,0,0,0,0,0,0,0,0,0,0,0,0,0,0,0,0,0,0,0,0,0,0,0,0,0,0,0,0,0,0,0,0,0,0,0,0,0,0,0,0,0,0,0,0,0,0.0225,0.0225,0,0.0248,0.0249,0.0249,0.0243,0.0243,0.0242,0.0242,0.0117,0.0114,0.0111,0,0,0,0,0,0,0,0,0,0,0,0,0,0.0133,0.0135,0.0224,0.0225,0.0225,0.0248,0.0249,0.0249,0.0243,0.0243,0.0242,0.0242,0.0118,0.0114,0.0111,0,0,0,0,0,0,0,0,0,0,0,0,0,0.0165,0.0136,0.0224,0.0227,0.0228,0.0248,0.0249,0.0249,0.0243,0.0243,0.0242,0.0242,0.0119,0.0115,0.011,0.009,0,0,0.0096,0.0094,0,0,0,0,0,0,0,0,0.0163,0.0168,0.0226,0.0227,0.0228,0.0244,0.0171,0.0189,0.0243,0.0235,0.0242,0.0242,0.0147,0.014,0.0145,0.0084,0.0079,0.0096,0.0093,0.0091,0.009,0,0,0,0,0,0,0,0.0161,0.0167,0.0232,0.0227,0.0228,0.0213,0.0217,0.0174,0.0189,0.0236,0.0236,0.0242,0.0146,0.015,0.0142,0.0077,0.0096,0.0092,0.0089,0.0087,0.0032,0.0034,0,0,0,0,0,0,0.0165,0.0165,0.0231,0.0233,0.0196,0.0215,0.022,0.0238,0.0193,0.0187,0.0242,0.0242,0.0158,0.0147,0.0137,0.0121,0.0091,0.0087,0.0084,0.0031,0.0033,0.0034,0,0,0,0,0,0,0.0163,0.0171,0.023,0.02,0.0207,0.0218,0.0237,0.0238,0.0245,0.02,0.0191,0.0248,0.0157,0.0143,0.0113,0.0115,0.0085,0.008,0.003,0.0032,0.0033,0.008,0,0,0,0,0,0,0.0161,0.0171,0.0178,0.0201,0.0209,0.025,0.0238,0.0239,0.025,0.0249,0.0201,0.019,0.0156,0.012,0.0108,0.0108,0.0077,0.0028,0.0031,0.0033,0.0077,0.0083,0.0089,0,0,0,0,0,0.0158,0.0177,0.0178,0.0186,0.0221,0.025,0.0253,0.0257,0.0251,0.026,0.0231,0.0191,0.0128,0.0117,0.0103,0.0101,0.0027,0.003,0.0033,0.0074,0.0082,0.0089,0,0,0,0,0,0,0.0137,0.0179,0.0181,0.021,0.023,0.025,0.0258,0.0262,0.025,0.024,0.0198,0.0184,0.0156,0.0132,0.0122,0.0099,0.0074,0.0075,0.0111,0.0118,0.0124,0.0164,0.0073,0,0,0,0,0,0.0137,0.0166,0.0195,0.0217,0.0228,0.0243,0.0252,0.0256,0.0253,0.0249,0.0217,0.0186,0.0159,0.0141,0.0108,0.009,0.0074,0.0087,0.0093,0.0098,0.0125,0.0083,0.0088,0.0044,0.0044,0.0044,0,0,0.013,0.0161,0.0172,0.0214,0.0228,0.0252,0.0247,0.0266,0.0284,0.0232,0.0231,0.0194,0.0159,0.0142,0.0128,0.012,0.0106,0.0101,0.0106,0.0131,0.0087,0.0091,0.0094,0.0046,0.0046,0.0045,0,0,0.014,0.0163,0.0189,0.0212,0.0242,0.0256,0.0264,0.0282,0.0288,0.0289,0.0254,0.0236,0.0191,0.0177,0.0163,0.0186,0.0133,0.0165,0.0228,0.0187,0.019,0.0192,0.0192,0.0194,0.0175,0.0175,0.0175,0,0.0126,0.0172,0.0197,0.023,0.0251,0.0261,0.0287,0.0302,0.0304,0.0313,0.0294,0.0254,0.0219,0.0211,0.023,0.0199,0.0175,0.0197,0.0193,0.0195,0.0196,0.0196,0.0197,0.0177,0.0177,0.0177,0.0177,0,0.0159,0.0192,0.0211,0.026,0.0281,0.0308,0.0334,0.0346,0.035,0.0363,0.0355,0.0316,0.0292,0.0282,0.0267,0.0264,0.0244,0.0195,0.017,0.0203,0.0201,0.0202,0.0181,0.018,0.018,0.0179,0,0,0.0143,0.0218,0.0224,0.0253,0.03,0.0325,0.0357,0.0397,0.0424,0.0416,0.0435,0.0415,0.0387,0.0373,0.0331,0.0325,0.0323,0.0278,0.0274,0.0274,0.0254,0.0254,0.0255,0.0252,0.0252,0.0252,0.0254,0,0.0161,0.0224,0.0257,0.0309,0.0345,0.0371,0.0405,0.0437,0.0458,0.0475,0.0456,0.0448,0.042,0.0397,0.0383,0.0327,0.0325,0.033,0.0229,0.0228,0.0217,0.0255,0.025,0.0252,0.0254,0.0254,0.0254,0,0.0189,0.0231,0.0281,0.035,0.0366,0.0394,0.0452,0.0483,0.0518,0.0527,0.0521,0.0496,0.0486,0.0444,0.039,0.0384,0.0338,0.031,0.0306,0.0295,0.0229,0.0217,0.0252,0.0255,0.0255,0.0255,0.0255,0,0.0184,0.0254,0.0294,0.0317,0.0387,0.0412,0.0446,0.0498,0.0531,0.0553,0.0571,0.0537,0.0508,0.0451,0.0398,0.0379,0.0343,0.0289,0.0259,0.0258,0.0236,0.0234,0.026,0.026,0.026,0.026,0.026,0,0.0209,0.0245,0.0295,0.0322,0.0372,0.0414,0.0467,0.0505,0.0543,0.0591,0.0583,0.0595,0.0504,0.0471,0.0415,0.0352,0.0339,0.0297,0.0259,0.0255,0.0255,0.0236,0.0233,0.026,0.026,0.026,0.026,0,0.0213,0.0243,0.0297,0.0358,0.0376,0.0411,0.0479,0.0526,0.0563,0.0616,0.0621,0.062,0.0586,0.0522,0.0434,0.0372,0.0314,0.0292,0.0322,0.0288,0.026,0.026,0.0263,0.0263,0.0263,0.0263,0.0263,0,0.0229,0.0254,0.0312,0.0341,0.0371,0.0423,0.0469,0.0522,0.0574,0.0643,0.0669,0.0656,0.0657,0.0552,0.0445,0.0357,0.0332,0.0289,0.0257,0.0299,0.0261,0.026,0.026,0.0253,0.0253,0.0253,0.0252,0,0.0258,0.0267,0.0307,0.0358,0.0406,0.0463,0.053,0.0565,0.0638,0.0691,0.0747,0.0754,0.0672,0.0573,0.0452,0.0383,0.0303,0.0285,0.0299,0.0253,0.0288,0.0251,0.0251,0.0252,0.0252,0.0252,0.0252,0.0252,0.0274,0.0299,0.0337,0.0388,0.0439,0.0503,0.0553,0.0622,0.0694,0.0772,0.0778,0.0783,0.0688,0.052,0.0424,0.0308,0.0314,0.0255,0.0255,0.0255,0.0254,0.0286,0.0253,0.0253,0.0253,0.0253,0.0253,0,0.0302,0.0324,0.037,0.0431,0.0485,0.0509,0.06,0.0647,0.0729,0.0777,0.0814,0.0714,0.0626,0.0517,0.0354,0.0268,0.0247,0.0225,0.022,0.0222,0.0223,0.022,0.021,0.0209,0.0209,0.0209,0,0,0.0317,0.0355,0.0374,0.0455,0.0498,0.0574,0.0623,0.069,0.0733,0.0769,0.0759,0.0753,0.0637,0.0508,0.0396,0.0304,0.0276,0.0275,0.0318,0.0328,0.033,0.0249,0.0247,0,0,0,0,0]}],[{"header":{"parameterUnit":"m.s-1","parameterCategory":2,"la1":30.2991,"la2":30.254,"lo1":-89.0895,"lo2":-89.0444,"dy":0.0017,"dx":0.0017,"nx":28,"ny":28,"refTime":"2024-12-17T03:00:00:Z","depth":"4","parameterNumber":2,"parameterNumberName":"U-component_of_CURRENTS"},"data":[0,0,0,0,0,0,0,0,0,0,0,0,0,0,0,0,0,0,0,0,0,0,0,0,0,0,0,0,0,0,0,0,0,0,0,0,0,0,0,0,0,0,0,0,0,0,0,0,0,0,0,0,0,0,0,0,0,0,0.0259,0.0258,0,0.0246,0.0246,0.0246,0.0279,0.028,0.028,0.0281,0.0322,0.0322,0.0323,0,0,0,0,0,0,0,0,0,0,0,0,0,0.0369,0.0367,0.0259,0.0258,0.0258,0.0246,0.0246,0.0246,0.0279,0.028,0.028,0.0281,0.0322,0.0322,0.0323,0,0,0,0,0,0,0,0,0,0,0,0,0,0.0339,0.0366,0.0259,0.0269,0.027,0.0246,0.0246,0.0246,0.0279,0.028,0.0281,0.0281,0.0321,0.0322,0.0323,0.0309,0,0,0.0325,0.0326,0,0,0,0,0,0,0,0,0.0341,0.0336,0.0268,0.0268,0.0269,0.0261,0.03,0.0268,0.0278,0.028,0.0281,0.0282,0.0303,0.0305,0.0306,0.0311,0.0312,0.0325,0.0326,0.0326,0.0326,0,0,0,0,0,0,0,0.0343,0.0337,0.0258,0.0267,0.0268,0.0294,0.0291,0.0294,0.0291,0.028,0.0281,0.0272,0.0304,0.0305,0.0307,0.0313,0.0325,0.0326,0.0326,0.0327,0.0412,0.0413,0,0,0,0,0,0,0.0331,0.0338,0.0258,0.0257,0.0303,0.0291,0.0287,0.0266,0.0289,0.0292,0.0272,0.0274,0.0304,0.0307,0.0309,0.0351,0.0326,0.0327,0.0327,0.041,0.0412,0.0414,0,0,0,0,0,0,0.0333,0.0323,0.0259,0.0295,0.0288,0.0287,0.0264,0.0265,0.028,0.0282,0.0287,0.0285,0.0304,0.0308,0.0343,0.035,0.0327,0.0328,0.0408,0.041,0.0413,0.0397,0,0,0,0,0,0,0.0336,0.0324,0.0317,0.0293,0.0285,0.0252,0.0262,0.0264,0.027,0.0273,0.0295,0.0299,0.0305,0.0342,0.0344,0.0351,0.0328,0.0405,0.0409,0.0412,0.0395,0.0399,0.0402,0,0,0,0,0,0.034,0.0321,0.0317,0.0308,0.0271,0.0252,0.0251,0.0257,0.027,0.0275,0.0306,0.0299,0.0365,0.0344,0.0345,0.0353,0.0404,0.0408,0.0412,0.0394,0.0398,0.0402,0,0,0,0,0,0,0.0368,0.0321,0.0317,0.0285,0.0274,0.0256,0.0261,0.0262,0.0288,0.0302,0.0313,0.0319,0.0358,0.0364,0.034,0.0394,0.0386,0.0391,0.0372,0.0376,0.0379,0.0387,0.0329,0,0,0,0,0,0.0367,0.0343,0.0309,0.029,0.0283,0.0276,0.0273,0.0274,0.0283,0.0296,0.0305,0.0336,0.0372,0.0382,0.0409,0.0424,0.0442,0.0437,0.044,0.0443,0.0454,0.0517,0.0527,0.0427,0.0427,0.0427,0,0,0.0376,0.0345,0.0335,0.0295,0.0291,0.0284,0.0279,0.0274,0.0278,0.0295,0.0316,0.0346,0.0384,0.0414,0.043,0.0419,0.0474,0.0448,0.0449,0.046,0.0522,0.0532,0.054,0.043,0.0429,0.0429,0,0,0.0382,0.0353,0.0341,0.0327,0.0308,0.0299,0.0299,0.0283,0.029,0.0306,0.0337,0.0375,0.0402,0.0434,0.0456,0.0494,0.0496,0.0504,0.0512,0.0572,0.058,0.0588,0.0583,0.059,0.0496,0.0496,0.0496,0,0.0403,0.0369,0.034,0.0327,0.0319,0.0307,0.0304,0.0304,0.0304,0.0319,0.0317,0.0398,0.0414,0.0476,0.0492,0.0498,0.0519,0.0484,0.0574,0.0582,0.059,0.0584,0.0592,0.0496,0.0496,0.0496,0.0496,0,0.039,0.0378,0.0372,0.0349,0.034,0.0333,0.0318,0.0323,0.0328,0.0332,0.0385,0.0417,0.047,0.0478,0.0494,0.0563,0.0552,0.0573,0.0554,0.0599,0.0589,0.0598,0.0495,0.0496,0.0496,0.0496,0,0,0.0408,0.0371,0.0378,0.0373,0.0349,0.0341,0.0348,0.0352,0.0376,0.0382,0.0422,0.0473,0.0495,0.0525,0.0549,0.059,0.064,0.0604,0.0608,0.0582,0.0737,0.0647,0.0647,0.0685,0.0687,0.0689,0.0691,0,0.0418,0.0402,0.038,0.0385,0.0375,0.0366,0.0374,0.0382,0.0396,0.0428,0.0464,0.052,0.0511,0.0551,0.0589,0.0647,0.0671,0.0635,0.0715,0.0716,0.0617,0.0658,0.0698,0.0698,0.07,0.0702,0.0703,0,0.0413,0.0403,0.0403,0.0397,0.0396,0.0404,0.0425,0.0429,0.0469,0.0487,0.0537,0.0569,0.063,0.0626,0.0712,0.0694,0.0717,0.0742,0.0744,0.0677,0.0644,0.0659,0.0719,0.0718,0.0716,0.0715,0.0714,0,0.0424,0.0421,0.0423,0.0417,0.0409,0.0427,0.0434,0.0461,0.0475,0.0542,0.0573,0.0639,0.0686,0.0741,0.0769,0.0762,0.0853,0.0848,0.0774,0.0765,0.085,0.0842,0.0916,0.0916,0.0916,0.0916,0.0916,0,0.0418,0.0425,0.0437,0.0434,0.0457,0.0449,0.0485,0.0503,0.0543,0.0568,0.0614,0.0649,0.073,0.0774,0.0794,0.0797,0.0871,0.0782,0.0777,0.0837,0.0828,0.0852,0.0845,0.0916,0.0916,0.0916,0.0916,0,0.0411,0.0417,0.0421,0.044,0.0455,0.0471,0.0503,0.0522,0.0567,0.0606,0.0633,0.0684,0.0732,0.0773,0.0856,0.0819,0.0844,0.0828,0.0853,0.0848,0.0699,0.0691,0.0738,0.0735,0.0733,0.0731,0.0729,0,0.0395,0.0398,0.043,0.0442,0.0454,0.0485,0.05,0.0536,0.0549,0.0609,0.062,0.0686,0.0712,0.0734,0.0785,0.0798,0.0794,0.0781,0.0768,0.0698,0.0689,0.0685,0.068,0.0725,0.0725,0.0724,0.0723,0,0.0371,0.0394,0.04,0.0425,0.0449,0.0461,0.0488,0.0501,0.0534,0.0588,0.0601,0.0619,0.0656,0.0687,0.0706,0.0717,0.078,0.0756,0.0761,0.0748,0.0683,0.0676,0.0674,0.0715,0.0716,0.0717,0.0718,0,0.0363,0.0365,0.0383,0.04,0.0424,0.042,0.0442,0.0453,0.0472,0.0536,0.054,0.0595,0.0652,0.0643,0.0662,0.0664,0.0647,0.062,0.0631,0.0641,0.0608,0.0512,0.0494,0,0,0,0,0,0.0349,0.0345,0.0353,0.0359,0.0376,0.0388,0.0418,0.0435,0.0487,0.0478,0.0505,0.0532,0.0546,0.057,0.0553,0.0606,0.0648,0.058,0.0621,0.0669,0.0679,0.065,0,0,0,0,0,0,0.034,0.0346,0.0339,0.0321,0.032,0.0324,0.0343,0.0373,0.0369,0.043,0.0446,0.0485,0.0516,0.0559,0.0542,0.0548,0.0556,0.0613,0.061,0.0664,0.0673,0.068,0.0654,0,0,0,0,0]},{"header":{"parameterUnit":"m.s-1","parameterCategory":2,"la1":30.2991,"la2":30.254,"lo1":-89.0895,"lo2":-89.0444,"dy":0.0017,"dx":0.0017,"nx":28,"ny":28,"refTime":"2024-12-17T03:00:00:Z","depth":"4","parameterNumber":3,"parameterNumberName":"V-component_of_CURRENTS"},"data":[0,0,0,0,0,0,0,0,0,0,0,0,0,0,0,0,0,0,0,0,0,0,0,0,0,0,0,0,0,0,0,0,0,0,0,0,0,0,0,0,0,0,0,0,0,0,0,0,0,0,0,0,0,0,0,0,0,0,0.029,0.029,0,0.0327,0.0327,0.0327,0.0343,0.0343,0.0343,0.0343,0.0343,0.0343,0.0343,0,0,0,0,0,0,0,0,0,0,0,0,0,0.0219,0.022,0.029,0.029,0.0291,0.0327,0.0327,0.0328,0.0343,0.0343,0.0343,0.0343,0.0343,0.0343,0.0343,0,0,0,0,0,0,0,0,0,0,0,0,0,0.0252,0.0221,0.029,0.0303,0.0304,0.0326,0.0327,0.0328,0.0343,0.0343,0.0343,0.0343,0.0343,0.0343,0.0343,0.0345,0,0,0.0343,0.0343,0,0,0,0,0,0,0,0,0.025,0.0255,0.0301,0.0302,0.0304,0.033,0.0302,0.0332,0.0343,0.0328,0.0343,0.0343,0.0335,0.0336,0.0344,0.0345,0.0345,0.0343,0.0343,0.0343,0.0343,0,0,0,0,0,0,0,0.0248,0.0253,0.0304,0.0301,0.0303,0.0302,0.0307,0.0308,0.0331,0.033,0.0331,0.0335,0.0336,0.0343,0.0344,0.0345,0.0343,0.0343,0.0343,0.0343,0.0353,0.0353,0,0,0,0,0,0,0.0245,0.0251,0.0303,0.0305,0.0276,0.0304,0.0309,0.0322,0.0332,0.0334,0.0335,0.0336,0.0343,0.0343,0.0344,0.0364,0.0343,0.0343,0.0343,0.0353,0.0353,0.0353,0,0,0,0,0,0,0.0243,0.0249,0.0302,0.0278,0.0285,0.0305,0.0319,0.0323,0.0337,0.0337,0.0338,0.0347,0.0343,0.0343,0.0351,0.0363,0.0343,0.0344,0.0352,0.0353,0.0353,0.0394,0,0,0,0,0,0,0.0241,0.0249,0.0259,0.0279,0.0286,0.032,0.0319,0.0323,0.034,0.0341,0.0347,0.0347,0.0343,0.0351,0.0352,0.0363,0.0344,0.0352,0.0352,0.0353,0.0392,0.0395,0.0398,0,0,0,0,0,0.0239,0.0254,0.026,0.0266,0.03,0.032,0.0325,0.0337,0.034,0.035,0.0354,0.0347,0.0353,0.0352,0.0352,0.0364,0.0352,0.0352,0.0353,0.0391,0.0395,0.0398,0,0,0,0,0,0,0.0228,0.0258,0.0264,0.0288,0.0305,0.0323,0.0335,0.0343,0.0355,0.0356,0.0354,0.0354,0.0363,0.0356,0.0354,0.0366,0.035,0.035,0.0379,0.0382,0.0385,0.0392,0.0344,0,0,0,0,0,0.0231,0.0252,0.0274,0.0293,0.0302,0.0319,0.033,0.034,0.0352,0.0358,0.0363,0.0364,0.0364,0.0368,0.0366,0.0377,0.0356,0.0381,0.0384,0.0387,0.0392,0.0367,0.0369,0.0354,0.0354,0.0354,0,0,0.0229,0.0251,0.0261,0.0292,0.0307,0.0327,0.0326,0.0347,0.0364,0.0354,0.038,0.0375,0.0368,0.0379,0.0383,0.0377,0.038,0.0388,0.039,0.0393,0.0368,0.0369,0.037,0.0355,0.0355,0.0355,0,0,0.0239,0.0259,0.028,0.0298,0.0324,0.0335,0.0343,0.0367,0.0378,0.04,0.0393,0.0397,0.0407,0.0403,0.0401,0.0418,0.0395,0.0417,0.0443,0.0419,0.042,0.0421,0.0395,0.0393,0.0421,0.0421,0.0421,0,0.0235,0.0268,0.0287,0.0312,0.0327,0.0341,0.0361,0.0378,0.0402,0.041,0.0412,0.0423,0.0418,0.0424,0.0433,0.0427,0.0407,0.0432,0.0424,0.0424,0.0424,0.0397,0.0395,0.0423,0.0423,0.0423,0.0422,0,0.0262,0.0288,0.0301,0.0339,0.0357,0.0377,0.0399,0.0418,0.0433,0.0446,0.0461,0.0458,0.0462,0.0462,0.0458,0.0457,0.0441,0.0429,0.0416,0.0428,0.0399,0.0396,0.0426,0.0425,0.0425,0.0424,0,0,0.0254,0.0308,0.0313,0.0334,0.0372,0.039,0.0418,0.0444,0.0462,0.0483,0.0502,0.0508,0.0505,0.0502,0.0493,0.0481,0.0467,0.0462,0.046,0.044,0.0413,0.0389,0.0382,0.0453,0.0452,0.0452,0.0392,0,0.0267,0.0313,0.0337,0.0377,0.0401,0.0423,0.0449,0.0473,0.0492,0.0514,0.0514,0.0528,0.0521,0.0524,0.0512,0.0477,0.046,0.0484,0.0401,0.0399,0.0379,0.0378,0.0451,0.0389,0.0389,0.0388,0.0387,0,0.0286,0.0316,0.0354,0.04,0.0412,0.0437,0.0474,0.05,0.0528,0.0542,0.0554,0.0554,0.055,0.0539,0.0488,0.0504,0.0464,0.0436,0.0432,0.0394,0.0369,0.0375,0.0381,0.0381,0.0382,0.0382,0.0383,0,0.0276,0.0327,0.0357,0.0375,0.0427,0.0447,0.0474,0.0508,0.0532,0.0559,0.0573,0.0567,0.0563,0.052,0.0472,0.0477,0.0407,0.04,0.0339,0.0336,0.0359,0.0358,0.0357,0.0357,0.0357,0.0358,0.0358,0,0.0285,0.0312,0.0357,0.0379,0.0415,0.045,0.0489,0.0514,0.0549,0.0574,0.0585,0.0592,0.0558,0.052,0.0472,0.0393,0.04,0.0342,0.032,0.0376,0.0379,0.0356,0.0356,0.0355,0.0356,0.0356,0.0357,0,0.0278,0.0308,0.0347,0.0398,0.0416,0.0443,0.0504,0.0532,0.056,0.0591,0.0601,0.0604,0.0555,0.0508,0.0432,0.0387,0.0318,0.0286,0.0349,0.0331,0.0264,0.0267,0.0214,0.0212,0.0211,0.021,0.0209,0,0.0282,0.0301,0.0355,0.0379,0.0407,0.0453,0.0489,0.0535,0.0563,0.0593,0.0603,0.0577,0.0567,0.044,0.0391,0.029,0.0276,0.0237,0.0258,0.0266,0.0249,0.0254,0.0259,0.0207,0.0207,0.0207,0.0207,0,0.0285,0.0302,0.0333,0.0379,0.0419,0.0466,0.0516,0.0534,0.0582,0.0604,0.0593,0.0552,0.0494,0.0423,0.0345,0.0275,0.0264,0.0225,0.0227,0.0246,0.0258,0.0244,0.025,0.0203,0.0203,0.0204,0.0204,0,0.0283,0.0298,0.0336,0.0378,0.0425,0.0468,0.0497,0.0529,0.0556,0.0585,0.0574,0.0532,0.0515,0.0413,0.0341,0.0272,0.0256,0.0232,0.0234,0.0237,0.0267,0.0286,0.0218,0,0,0,0,0,0.0281,0.0299,0.0335,0.0381,0.0428,0.0457,0.0513,0.054,0.0576,0.0562,0.057,0.0517,0.0424,0.0392,0.0315,0.0318,0.0244,0.0226,0.0217,0.0181,0.0185,0.0214,0,0,0,0,0,0,0.028,0.0309,0.0327,0.0376,0.0407,0.046,0.0496,0.0521,0.0516,0.0538,0.0488,0.0483,0.0393,0.0459,0.0306,0.029,0.027,0.0191,0.0189,0.0178,0.0182,0.0186,0.0217,0,0,0,0,0]}]]